Find Starlink 38313

NORAD ID: 100555 Int'l Des: 2026-200 Owner: SPXS Country: US Constellation: starlink operational

当前视图

正在加载3D地球...

About Starlink 38313

Starlink 38313 (NORAD 100555) is a starlink constellation satellite launched Sep 2, 2026 by SPXS of US. with a mass of 575.00 kg.

即将过境

Passes for default location (London). Set your location on the main map for personalized predictions.

高度历史

Loading altitude history...

两行轨道根数

1 A0555U 26200X 26255.25767820 .00257178 00000-0 12107-2 0 9995
2 A0555 69.9992 158.8250 0003622 271.9334 88.1453 15.82257789 1589
Epoch: Sep 12, 2026 • Age: 11 hours

当前状态

高度 326.1 km
远地点 / 近地点 N/A
速度 7.71 km/s
星下点 16.94°N, 77.11°E
发射日期 Sep 2, 2026
运行时间 10 days
类型 internet

技术详情

分类 Payload
质量 575.00 kg
干质量 530.00 kg
总质量 575.00 kg
长度 0.30 m
直径 4.10 m
跨度 29.00 m
形状 Box + pan
制造商 SPXS
平台类型 Starlink V2MO
阶段状态 In Orbit
所有者/国家 SPXS/US

Most Searched